Oakland, CA

4:45 AM PDT on May 25, 2018 (GMT -0700)
Metro Oakland International

Weather History for KOAK - January, 2014

Change the Weather History Date:

Monday, January 20, 2014

  Actual Average Record
Temperature  
Mean Temperature 51 °F 50 °F  
Max Temperature 66 °F 57 °F 67 °F (2011)
Min Temperature 36 °F 42 °F 31 °F (1963)
Degree Days  
Heating Degree Days 14 15  
Month to date heating degree days 269 324  
Since 1 July heating degree days 1392 1496  
Cooling Degree Days 0 0  
Month to date cooling degree days 0 0  
Year to date cooling degree days 0 0  
Growing Degree Days 2 (Base 50)    
Moisture  
Dew Point 37 °F    
Average Humidity 56    
Maximum Humidity 85    
Minimum Humidity 26    
Precipitation  
Precipitation 0.00 in 0.08 in 2.35 in (1967)
Month to date precipitation 0.01 3.13  
Year to date precipitation 0.01 3.13  
Since 1 July precipitation 2.08  
Sea Level Pressure  
Sea Level Pressure 30.17 in    
Wind  
Wind Speed 2 mph (West)    
Max Wind Speed 6 mph    
Max Gust Speed 15 mph    
Visibility 9 miles    
Events      
T = Trace of Precipitation, MM = Missing Value Source: NWS Daily Summary

Daily Weather History Graph

Daily Weather History Graph

Search for Another Location

Airport or City:

Astronomy

Jan. 20, 2014 Rise Set
Actual Time 7:20 AM PST 5:19 PM PST
Civil Twilight 6:52 AM PST 5:47 PM PST
Nautical Twilight 6:20 AM PST 6:19 PM PST
Astronomical Twilight 5:49 AM PST 6:51 PM PST
Moon 9:53 PM PST (1/20) 9:28 AM PST (1/20)
Length of Visible Light 10h 55m
Length of Day
9h 58m
Waning Gibbous, 82% of the Moon is Illuminated
Jan 20
Waning Gibbous
Jan 23
Last Quarter
Jan 30
New
Feb 6
First Quarter
Feb 14
Full

Hourly Weather History & Observations

Time (PST) Temp. Windchill Dew Point Humidity Pressure Visibility Wind Dir Wind Speed Gust Speed Precip Events Conditions
12:53 AM 43.0 °F - 37.0 °F 80% 30.12 in 7.0 mi Calm Calm - N/A   Partly Cloudy
1:53 AM 46.9 °F - 41.0 °F 80% 30.13 in 8.0 mi SE 4.6 mph - N/A   Partly Cloudy
2:53 AM 42.1 °F - 36.0 °F 79% 30.14 in 7.0 mi Calm Calm - N/A   Partly Cloudy
3:53 AM 39.0 °F - 35.1 °F 86% 30.14 in 7.0 mi Calm Calm - N/A   Partly Cloudy
4:53 AM 39.9 °F 37.8 °F 36.0 °F 86% 30.14 in 6.0 mi ENE 3.5 mph - N/A   Partly Cloudy
5:53 AM 39.0 °F - 35.1 °F 86% 30.15 in 7.0 mi Calm Calm - N/A   Partly Cloudy
6:53 AM 39.9 °F - 36.0 °F 86% 30.16 in 7.0 mi Calm Calm - N/A   Scattered Clouds
7:53 AM 39.0 °F - 34.0 °F 82% 30.17 in 6.0 mi Calm Calm - N/A   Haze
8:53 AM 50.0 °F - 39.9 °F 68% 30.18 in 10.0 mi Calm Calm - N/A   Partly Cloudy
9:53 AM 53.1 °F - 42.1 °F 66% 30.20 in 10.0 mi Calm Calm - N/A   Partly Cloudy
10:53 AM 54.0 °F - 44.1 °F 69% 30.21 in 10.0 mi South 4.6 mph - N/A   Partly Cloudy
11:53 AM 55.0 °F - 45.0 °F 69% 30.19 in 10.0 mi WSW 3.5 mph - N/A   Partly Cloudy
12:53 PM 59.0 °F - 37.9 °F 46% 30.16 in 10.0 mi West 4.6 mph - N/A   Partly Cloudy
1:53 PM 63.0 °F - 32.0 °F 31% 30.14 in 10.0 mi WNW 4.6 mph - N/A   Partly Cloudy
2:53 PM 64.9 °F - 28.9 °F 26% 30.15 in 10.0 mi West 4.6 mph - N/A   Clear
3:53 PM 66.0 °F - 30.9 °F 27% 30.16 in 10.0 mi WNW 4.6 mph - N/A   Partly Cloudy
4:53 PM 62.1 °F - 35.1 °F 37% 30.15 in 10.0 mi WNW 3.5 mph - N/A   Partly Cloudy
5:53 PM 59.0 °F - 34.0 °F 39% 30.16 in 10.0 mi Calm Calm - N/A   Clear
6:53 PM 52.0 °F - 34.0 °F 50% 30.18 in 10.0 mi Calm Calm - N/A   Clear
7:53 PM 50.0 °F - 37.9 °F 63% 30.19 in 10.0 mi Calm Calm - N/A   Clear
8:53 PM 46.0 °F - 37.0 °F 71% 30.21 in 10.0 mi Calm Calm - N/A   Clear
9:53 PM 46.9 °F - 37.9 °F 71% 30.22 in 10.0 mi Calm Calm - N/A   Clear
10:53 PM 43.0 °F - 37.0 °F 80% 30.23 in 10.0 mi Calm Calm - N/A   Clear
11:53 PM 46.9 °F - 37.9 °F 71% 30.24 in 10.0 mi Calm Calm - N/A   Clear